Flag for Japan Weather past 2 weeks in Fukuoka, Japan

Now
81 °F

Partly sunny.


Feels Like: 82 °F
Forecast: 71 / 80 °F
Wind: 13 mph from North

Location: Fukuoka Airport

Current Time: Sep 16, 2014 at 4:57:58 PM

Latest Report: Sep 16, 2014 at 4:30 PM


Visibility: N/A

Pressure: 29.89 "Hg

Humidity: 54%

Dew point: 63 °F

Location of FukuokaLocation

Historic Weather in Fukuoka — Graph

°F

Fukuoka temperature yesterday

Maximum temperature yesterday: 82 °F (at 11:30 AM)
Minimum temperature yesterday: 70 °F (at 12:00 AM)
Average temperature yesterday: 75 °F

Past Weeks' High & Low Weather Summary

 TemperatureHumidityPressure
High86 °F (Sep 2, 11:00 AM)100% (Sep 3, 6:49 PM)29.95 "Hg (Sep 3, 6:49 PM)
Low64 °F (Sep 14, 3:00 AM)31% (Sep 13, 3:00 PM)29.62 "Hg (Sep 8, 1:30 PM)
Average77 °F72%29.81 "Hg
* Reported Sep 1 4:00 PM — Sep 16 4:00 PM, Fukuoka, Weather by CustomWeather, © 2014

Note: Actual official high and low records may vary slightly from our data, if they occured in-between our weather recording intervals... More about our weather records

Advertising

Fukuoka weather history for previous 24 hours

 ConditionsComfort  
Time TempWeatherWind HumidityBarometerVisibility
4:00 PM
Sep 16
81 °FPassing clouds.13 mph54%29.89 "HgN/A
3:30 PM82 °FPassing clouds.16 mph51%29.89 "HgN/A
3:00 PM82 °FPassing clouds.15 mph48%29.89 "HgN/A
2:30 PM82 °FPassing clouds.14 mph48%29.89 "HgN/A
2:00 PM82 °FScattered clouds.14 mph45%29.89 "HgN/A
1:30 PM82 °FScattered clouds.15 mph51%29.89 "HgN/A
1:00 PM82 °FPassing clouds.14 mph55%29.89 "HgN/A
12:30 PM82 °FPassing clouds.15 mph51%29.89 "HgN/A
12:00 PM82 °FPassing clouds.14 mph51%29.89 "HgN/A
11:30 AM84 °FPassing clouds.8 mph40%29.92 "HgN/A
11:00 AM82 °FPassing clouds.5 mph48%29.92 "HgN/A
10:30 AM81 °FScattered clouds.6 mph48%29.92 "HgN/A
10:00 AM81 °FScattered clouds.3 mph48%29.92 "HgN/A
9:30 AM79 °FScattered clouds.5 mph58%29.92 "HgN/A
9:00 AM79 °FScattered clouds.3 mph61%29.92 "HgN/A
8:30 AM77 °FScattered clouds.7 mph65%29.92 "HgN/A
8:00 AM75 °FScattered clouds.3 mph74%29.92 "HgN/A
7:30 AM73 °FPartly sunny.3 mph83%29.92 "HgN/A
7:00 AM72 °FPartly sunny.3 mph83%29.92 "HgN/A
6:30 AM72 °FPartly sunny.3 mph83%29.89 "HgN/A
6:00 AM72 °FPassing clouds.No wind83%29.89 "HgN/A
5:30 AM72 °FLight rain. Partly cloudy.3 mph83%29.86 "HgN/A
5:00 AM72 °FPartly cloudy.2 mph83%29.86 "HgN/A
4:30 AM72 °FPartly cloudy.3 mph83%29.86 "HgN/A
4:00 AM72 °FPassing clouds.3 mph83%29.89 "HgN/A
3:30 AM72 °FPassing clouds.3 mph83%29.89 "HgN/A
3:00 AM72 °FPassing clouds.3 mph88%29.89 "HgN/A
2:30 AM72 °FPartly cloudy.5 mph83%29.86 "HgN/A
2:00 AM73 °FPartly cloudy.3 mph78%29.86 "HgN/A
1:30 AM72 °FPassing clouds.1 mph83%29.86 "HgN/A
1:00 AM72 °FPassing clouds.1 mph83%29.86 "HgN/A
12:30 AM73 °FPassing clouds.3 mph78%29.86 "HgN/A
12:00 AM73 °FPassing clouds.2 mph78%29.86 "HgN/A
11:30 PM
Sep 15
73 °FPartly cloudy.3 mph78%29.86 "HgN/A
11:00 PM73 °FPassing clouds.3 mph78%29.86 "HgN/A
10:30 PM75 °FPassing clouds.5 mph78%29.89 "HgN/A
10:00 PM75 °FPartly cloudy.5 mph74%29.89 "HgN/A
9:30 PM75 °FPassing clouds.6 mph74%29.89 "HgN/A
9:00 PM75 °FPartly cloudy.6 mph74%29.89 "HgN/A
8:30 PM75 °FPartly cloudy.6 mph74%29.89 "HgN/A
8:00 PM77 °FPassing clouds.8 mph69%29.86 "HgN/A
7:30 PM77 °FPartly cloudy.7 mph69%29.86 "HgN/A
7:00 PM77 °FPartly cloudy.9 mph69%29.86 "HgN/A
6:30 PM77 °FPartly cloudy.7 mph69%29.83 "HgN/A
6:00 PM77 °FPartly sunny.7 mph65%29.83 "HgN/A
5:30 PM77 °FBroken clouds.9 mph69%29.83 "HgN/A
5:00 PM79 °FBroken clouds.10 mph65%29.83 "HgN/A
4:30 PM79 °FBroken clouds.14 mph61%29.83 "HgN/A
4:00 PM79 °FPartly sunny.12 mph65%29.80 "HgN/A
Weather by CustomWeather, © 2014

See weather overviewHow to use our weather pages